Вернуться в каталог

OPS 4682 DEB

АктивенPO
NORAD 38438·DEBRIS·🇺🇸 United States

Запущен Apr 3, 1965 с Vandenberg Space Force Base

Loading…

Ближайшие Пролёты (ближайшие 24 часа)

TLE

СвежийSource: Space-Track

Эпоха: Sep 14, 2026, 06:56 UTC

1 38438U 65027ET  26257.28907807  .00000259  00000-0  92123-3 0  9995
2 38438  90.2470   7.5856 0029593  42.5767 317.7638 12.93149022672553

Отслеживайте OPS 4682 DEB в реальном времени с AllMySat

Download on the App Store